| time (UTC) | temp F | wind direction | speed MPH | gust MPH | rain 1hr in | rain 24hr in | rain mn in | humidity % | barometer mb |
| 20260504081509 | 40 | 222 | 0.0 | 3.0 | 0.00 | 0.00 | 0.00 | 80 | 1007.1 |
| 20260504044545 | 35 | 225 | 1.0 | 4.0 | 0.00 | 0.00 | 0.00 | 76 | 1008.0 |
| 20260504043039 | 35 | 211 | 2.0 | 5.0 | 0.00 | 0.00 | 0.00 | 75 | 1008.1 |
| 20260504041535 | 34 | 226 | 2.0 | 6.0 | 0.00 | 0.00 | 0.00 | 76 | 1008.3 |
| 20260504040044 | 33 | 217 | 3.0 | 5.0 | 0.00 | 0.00 | 0.00 | 78 | 1008.1 |
| 20260504034532 | 33 | 238 | 2.0 | 5.0 | 0.00 | 0.00 | 0.00 | 78 | 1008.1 |
| 20260504033028 | 33 | 222 | 0.0 | 4.0 | 0.00 | 0.00 | 0.00 | 79 | 1008.0 |
| 20260504031528 | 33 | 217 | 0.0 | 3.0 | 0.00 | 0.00 | 0.00 | 78 | 1008.0 |
| 20260504030024 | 34 | 215 | 1.0 | 4.0 | 0.00 | 0.00 | 0.00 | 77 | 1008.2 |
| 20260504024520 | 35 | 221 | 1.0 | 4.0 | 0.00 | 0.00 | 0.00 | 75 | 1008.3 |
| 20260504023019 | 35 | 224 | 1.0 | 4.0 | 0.00 | 0.00 | 0.00 | 74 | 1008.3 |
| 20260504021517 | 35 | 237 | 0.0 | 3.0 | 0.00 | 0.00 | 0.00 | 74 | 1008.2 |
| 20260504020017 | 36 | 240 | 0.0 | 2.0 | 0.00 | 0.00 | 0.00 | 73 | 1008.1 |
| 20260504014512 | 36 | 240 | 1.0 | 3.0 | 0.00 | 0.00 | 0.00 | 72 | 1008.1 |
| 20260504013011 | 37 | 236 | 1.0 | 3.0 | 0.00 | 0.00 | 0.00 | 71 | 1008.1 |
| 20260504011507 | 38 | 234 | 1.0 | 3.0 | 0.00 | 0.00 | 0.00 | 69 | 1007.9 |
| 20260504010005 | 40 | 280 | 0.0 | 2.0 | 0.00 | 0.00 | 0.00 | 67 | 1007.9 |
| 20260504004505 | 41 | 284 | 0.0 | 1.0 | 0.00 | 0.00 | 0.00 | 64 | 1007.9 |
| 20260504003005 | 42 | 284 | 1.0 | 3.0 | 0.00 | 0.00 | 0.00 | 62 | 1007.6 |
| 20260504001505 | 44 | 307 | 0.0 | 1.0 | 0.00 | 0.00 | 0.00 | 56 | 1007.5 |
| 20260504000003 | 46 | 304 | 0.0 | 1.0 | 0.00 | 0.00 | 0.00 | 52 | 1007.3 |
| 20260503234503 | 47 | 304 | 0.0 | 3.0 | 0.00 | 0.00 | 0.00 | 50 | 1007.4 |
| 20260503233003 | 48 | 284 | 0.0 | 3.0 | 0.00 | 0.00 | 0.00 | 48 | 1007.3 |
| 20260503231504 | 49 | 289 | 0.0 | 2.0 | 0.00 | 0.00 | 0.00 | 43 | 1007.2 |
| 20260503230003 | 49 | 289 | 1.0 | 6.0 | 0.00 | 0.02 | 0.00 | 41 | 1007.1 |
| 20260503224501 | 50 | 26 | 2.0 | 10.0 | 0.00 | 0.02 | 0.00 | 40 | 1007.2 |
| 20260503223100 | 51 | 355 | 1.0 | 9.0 | 0.00 | 0.02 | 0.00 | 40 | 1007.1 |
| 20260503221603 | 51 | 82 | 3.0 | 6.0 | 0.00 | 0.02 | 0.00 | 40 | 1007.1 |
| 20260503220058 | 50 | 326 | 2.0 | 8.0 | 0.00 | 0.02 | 0.00 | 40 | 1007.0 |
| 20260503214602 | 50 | 240 | 1.0 | 5.0 | 0.00 | 0.02 | 0.00 | 42 | 1007.1 |
| 20260503213055 | 49 | 55 | 2.0 | 9.0 | 0.00 | 0.02 | 0.00 | 42 | 1007.2 |
| 20260503211556 | 49 | 67 | 1.0 | 10.0 | 0.00 | 0.02 | 0.00 | 43 | 1007.3 |
| 20260503210055 | 49 | 99 | 8.0 | 18.0 | 0.00 | 0.02 | 0.00 | 42 | 1007.3 |
| 20260503204558 | 49 | 240 | 5.0 | 13.0 | 0.00 | 0.02 | 0.00 | 41 | 1007.2 |
| 20260503203053 | 49 | 291 | 4.0 | 13.0 | 0.00 | 0.02 | 0.00 | 44 | 1007.2 |
| 20260503201554 | 48 | 336 | 7.0 | 14.0 | 0.00 | 0.02 | 0.00 | 44 | 1007.2 |
| 20260503200051 | 48 | 300 | 5.0 | 11.0 | 0.00 | 0.02 | 0.00 | 45 | 1007.3 |
| 20260503194550 | 48 | 338 | 1.0 | 10.0 | 0.00 | 0.02 | 0.00 | 46 | 1007.5 |
| 20260503193106 | 47 | 290 | 5.0 | 12.0 | 0.00 | 0.02 | 0.00 | 46 | 1007.7 |
| 20260503191552 | 48 | 282 | 4.0 | 13.0 | 0.00 | 0.02 | 0.00 | 45 | 1007.8 |
| 20260503184547 | 48 | 340 | 3.0 | 10.0 | 0.00 | 0.02 | 0.00 | 44 | 1007.7 |
| 20260503183058 | 48 | 329 | 5.0 | 10.0 | 0.00 | 0.02 | 0.00 | 42 | 1007.7 |
| 20260503181546 | 49 | 194 | 2.0 | 11.0 | 0.00 | 0.02 | 0.00 | 42 | 1007.8 |
| 20260503180054 | 50 | 355 | 8.0 | 15.0 | 0.00 | 0.02 | 0.00 | 40 | 1007.7 |
| 20260503174541 | 49 | 107 | 8.0 | 15.0 | 0.00 | 0.02 | 0.00 | 38 | 1007.5 |
| 20260503173103 | 48 | 202 | 6.0 | 15.0 | 0.00 | 0.02 | 0.00 | 40 | 1007.7 |
| 20260503171548 | 49 | 281 | 3.0 | 15.0 | 0.00 | 0.02 | 0.00 | 39 | 1007.7 |